Preview of NWS' New Version of Forecast
This preview is not operational and should not be used for support decisions.

Regional Weather Roundup (RWR)

Issued by National Weather Service (NWS)

                            
000
ASUS43 KMKX 190020
RWRWI 

WISCONSIN REGIONAL WEATHER ROUNDUP
NATIONAL WEATHER SERVICE MILWAUKEE/SULLIVAN WI
700 PM CDT THU APR 18 2019

NOTE: "FAIR" INDICATES FEW OR NO CLOUDS BELOW 12,000 FEET WITH NO
SIGNIFICANT WEATHER AND/OR OBSTRUCTIONS TO VISIBILITY.

WIZ001-002-006>008-014>016-023>028-190100-
NORTHWEST WISCONSIN
  
CITY           SKY/WX    TMP DP  RH WIND       PRES   REMARKS
SUPERIOR ARPT  FAIR      45  38  76 CALM      29.93R                  
6HR MIN TEMP:  44; 6HR MAX TEMP:  52; 6HR PCP:  0.01;                

ASHLAND        CLOUDY    47  40  76 N5        29.91R                  
6HR MIN TEMP:  43; 6HR MAX TEMP:  48; 6HR PCP: TRACE;                

HAYWARD        MOCLDY    49  39  68 N3        29.90R                  
6HR MIN TEMP:  41; 6HR MAX TEMP:  49; 6HR PCP: TRACE;                

SIREN          FAIR      49  36  61 N8        29.92R                  
6HR MIN TEMP:  47; 6HR MAX TEMP:  52;                                

CUMBERLAND     FAIR      45  36  70 N6        29.90R                  
RICE LAKE      FAIR      48  39  70 N8        29.92R                  
6HR MIN TEMP:  43; 6HR MAX TEMP:  49;                                

CHETEK         FAIR      45  37  74 N7        29.90S                  
6HR MIN TEMP:  42; 6HR MAX TEMP:  48;                                

LADYSMITH      MOCLDY    45  39  78 N12       29.90R                  
6HR MIN TEMP:  39; 6HR MAX TEMP:  46;                                

EAU CLAIRE     MOCLDY    48  37  65 N7        29.89R                  
6HR MIN TEMP:  42; 6HR MAX TEMP:  49; 6HR PCP: TRACE;                

MENOMONIE      FAIR      45  34  66 NW14      29.90R                  
6HR MIN TEMP:  41; 6HR MAX TEMP:  47;                                

NEW RICHMOND   FAIR      49  36  62 N5G16     29.92R                  
6HR MIN TEMP:  46; 6HR MAX TEMP:  53; 6HR PCP:  0.01;                

OSCEOLA        FAIR      50  40  67 N7        29.94R                  
6HR MIN TEMP:  47; 6HR MAX TEMP:  51;                                

$$
 
WIZ003>005-009-010-017-018-190100-
NORTH CENTRAL WISCONSIN
  
CITY           SKY/WX    TMP DP  RH WIND       PRES   REMARKS
MANITOWISH WTR CLOUDY    37  37 100 N7        29.87R WCI  32          
6HR MIN TEMP:  36; 6HR MAX TEMP:  38;                                

ARBOR VITAE    CLOUDY    39  37  92 N8        29.86R WCI  34          
6HR MIN TEMP:  39; 6HR MAX TEMP:  42;                                

WOODRUFF       CLOUDY    39  37  92 N8        29.86R WCI  34          
6HR MIN TEMP:  39; 6HR MAX TEMP:  42;                                

RHINELANDER    LGT RAIN  40  35  83 N6        29.85R                  
6HR MIN TEMP:  40; 6HR MAX TEMP:  42; 6HR PCP: TRACE;                

EAGLE RIVER    CLOUDY    38  37  92 N8        29.84R WCI  33          
6HR MIN TEMP:  38; 6HR MAX TEMP:  39;                                

LAND O LAKES   CLOUDY    39  36  88 N9        29.86R WCI  33          
6HR MIN TEMP:  37; 6HR MAX TEMP:  39;                                

PHILLIPS       DRIZZLE   40  39  96 N7        29.88R                  
6HR MIN TEMP:  37; 6HR MAX TEMP:  40;                                

TOMAHAWK       CLOUDY    38  35  87 NW8       29.85R WCI  33          
6HR MIN TEMP:  37; 6HR MAX TEMP:  39;                                

MEDFORD        CLOUDY    38  37  92 N6        29.87R WCI  34          
6HR MIN TEMP:  37; 6HR MAX TEMP:  38;                                

MERRILL        CLOUDY    40  37  88 N6        29.86R                  
6HR MIN TEMP:  39; 6HR MAX TEMP:  42;                                

$$
 
WIZ029-030-035-036-043>047-190100-
CENTRAL WISCONSIN
  
CITY           SKY/WX    TMP DP  RH WIND       PRES   REMARKS
WAUSAU         CLOUDY    40  35  83 N8        29.83R WCI  34          
6HR MIN TEMP:  40; 6HR MAX TEMP:  43; 6HR PCP: TRACE;                

MOSINEE        CLOUDY    39  36  87 NW13      29.86R WCI  32          
MARSHFIELD     CLOUDY    41  37  86 N13       29.85R                  
6HR MIN TEMP:  40; 6HR MAX TEMP:  42; 6HR PCP: TRACE;                

STEVENS POINT  DRIZZLE   39  35  83 N10       29.85R WCI  33          
6HR MIN TEMP:  39; 6HR MAX TEMP:  42;                                

WAUPACA        DRIZZLE   45  37  72 NW9       29.82R                  
6HR MIN TEMP:  45; 6HR MAX TEMP:  47;                                

WAUTOMA        CLOUDY    43  36  76 N13       29.82R                  
6HR MIN TEMP:  42; 6HR MAX TEMP:  44;                                

WISC RAPIDS    CLOUDY    42  33  70 N14       29.85R                  
6HR MIN TEMP:  42; 6HR MAX TEMP:  44;                                

CAMP DOUGLAS   CLOUDY    43  39  86 N13G23    29.85R                  
6HR MIN TEMP:  43; 6HR MAX TEMP:  45;                                

$$
 
WIZ011>013-019>022-031-037>040-048>050-190100-
NORTHEAST WISCONSIN
  
CITY           SKY/WX    TMP DP  RH WIND       PRES   REMARKS
ANTIGO         DRIZZLE   38  36  94 N12       29.82R WCI  30          
SHAWANO        DRIZZLE   44  37  74 NW3       29.82R                  
6HR MIN TEMP:  44; 6HR MAX TEMP:  47;                                

OCONTO         CLOUDY    41  38  88 NW9       29.79R                  
6HR MIN TEMP:  40; 6HR MAX TEMP:  44;                                

STURGEON BAY   CLOUDY    40  37  89 NW12      29.77R WCI  33          
6HR MIN TEMP:  40; 6HR MAX TEMP:  42; 6HR PCP: TRACE;                

GREEN BAY      CLOUDY    44  37  76 N16       29.79R                  
6HR MIN TEMP:  44; 6HR MAX TEMP:  47;                                

MANITOWOC      CLOUDY    42  38  85 NW12      29.77R                  
6HR MIN TEMP:  42; 6HR MAX TEMP:  44; 6HR PCP: TRACE;                

APPLETON       CLOUDY    43  34  70 N12       29.77R                  
CLINTONVILLE   CLOUDY    43  36  76 N5        29.82R                  
6HR MIN TEMP:  43; 6HR MAX TEMP:  45;                                

OSHKOSH        CLOUDY    44  37  76 N14       29.78R                  
6HR MIN TEMP:  42; 6HR MAX TEMP:  45; 6HR PCP: TRACE;                

$$
 
WIZ032>034-041-042-053>061-190100-
SOUTHWEST WISCONSIN
  
CITY           SKY/WX    TMP DP  RH WIND       PRES   REMARKS
LA CROSSE      CLOUDY    50  35  56 N13       29.88R                  
6HR MIN TEMP:  47; 6HR MAX TEMP:  50;                                

SPARTA         CLOUDY    44  37  76 N12       29.88R                  
6HR MIN TEMP:  43; 6HR MAX TEMP:  46;                                

VIROQUA        CLOUDY    44  38  81 N13G22    29.86R                  
6HR MIN TEMP:  41; 6HR MAX TEMP:  45;                                

BOSCOBEL       CLOUDY    48  35  60 N9G22     29.86R                  
6HR MIN TEMP:  45; 6HR MAX TEMP:  50;                                

PRAIRIE DU CHI MOCLDY    48  34  58 N9        29.86R                  
6HR MIN TEMP:  45; 6HR MAX TEMP:  49;                                

PLATTEVILLE    CLOUDY    46  38  76 N14       29.84R                  
6HR MIN TEMP:  43; 6HR MAX TEMP:  47;                                

$$

WIZ056-057-062-063-064-067-068-190100-
SOUTH CENTRAL WISCONSIN
  
CITY           SKY/WX    TMP DP  RH WIND       PRES   REMARKS
REEDSBURG      CLOUDY    43  36  76 N14       29.84R                  
6HR MIN TEMP:  41; 6HR MAX TEMP:  44;                                

BARABOO/DELLS  CLOUDY    43  35  73 N15G23    29.83R                  
6HR MIN TEMP:  42; 6HR MAX TEMP:  44;                                

LONE ROCK      CLOUDY    46  35  65 N15G22    29.84R                  
6HR MIN TEMP:  44; 6HR MAX TEMP:  47;                                

MINERAL POINT  CLOUDY    45  37  76 N10       29.83R                  
MADISON        DRIZZLE   44  36  73 N12G23    29.79R                  
6HR MIN TEMP:  43; 6HR MAX TEMP:  45; 6HR PCP: TRACE;                

MIDDLETON      CLOUDY    45  38  77 N14G21    29.81R                  
6HR MIN TEMP:  44; 6HR MAX TEMP:  46;                                

WATERTOWN      CLOUDY    43  39  86 NW13      29.78R                  
6HR MIN TEMP:  42; 6HR MAX TEMP:  45;                                

MONROE         CLOUDY    44  35  70 MISG      29.80R                  
6HR MIN TEMP:  43; 6HR MAX TEMP:  46;                                

JANESVILLE     CLOUDY    46  37  71 N12G17    29.78R                  
$$
 
WIZ051-052-058>065-066-070>072-190100-
SOUTHEAST WISCONSIN
  
CITY           SKY/WX    TMP DP  RH WIND       PRES   REMARKS
MILWAUKEE      CLOUDY    46  36  68 N13G21    29.75R                  
6HR MIN TEMP:  45; 6HR MAX TEMP:  47;                                

WAUKESHA       CLOUDY    41  37  87 NW7       29.78R                  
MILWAUKEE/TIMM CLOUDY    43  36  75 NW16      29.77R                  
RACINE         CLOUDY    45  37  73 NW9       29.77R                  
6HR MIN TEMP:  43; 6HR MAX TEMP:  48;                                

KENOSHA        CLOUDY    45  39  79 NW8       29.75R                  
6HR MIN TEMP:  45; 6HR MAX TEMP:  48;                                

FOND DU LAC    CLOUDY    43  39  86 N12       29.78R                  
6HR MIN TEMP:  42; 6HR MAX TEMP:  44; 6HR PCP: TRACE;                

SHEBOYGAN      LGT RAIN  43  39  86 N12       29.76R FOG              
6HR MIN TEMP:  43; 6HR MAX TEMP:  44; 6HR PCP:  0.02;                

WEST BEND      DRIZZLE   41  39  93 NW10G17   29.77R                  
JUNEAU         CLOUDY    42  38  85 NW10      29.79R                  
6HR MIN TEMP:  41; 6HR MAX TEMP:  43;                                

$$

LSZ147-162-190100-
LAKE SUPERIOR
  
STATION/POSITION TIME  TEMP    WIND        PRES    WAVE
                       AIR SEA DIR/SP/G            HT/PER
                 (UTC) (F)     (DEG/KT/KT) (MB)    (FT/S)
$$
 
LMZ867-665-643>646-190100-
LAKE MICHIGAN
  
STATION/POSITION TIME  TEMP    WIND        PRES    WAVE
                       AIR SEA DIR/SP/G            HT/PER
                 (UTC) (F)     (DEG/KT/KT) (MB)    (FT/S)
NORTHPORT PIER   2340   38     300/  6/  8 1007.1R
KEWAUNEE LAKESHO 2354   43     330/ 10/ 16 1007.2R
SHEBOYGAN LAKESH 0000